When you browse on this site, cookies collect data to enhance your experience and personalize the content and advertising you see.
Visit our Privacy Policy to learn more. By continuing to use the site, you agree to this use of cookies and data.
  • In Germany
  • List of Countries
  • For 7 days
  • Water Temperature
  • Satellite Maps
  • Weather Map
  • Weather Widgets
  • user-avatar
    Login

    Hourly Weather Rio Branco

    Today, 20 January, Sunday

    Time Temperature Precipitation Wind Pressure Humidity
    00:00 +25°C° 0.1 mm 1 mps 746 mmHg 97%
    01:00 +25°C° 0.1 mm 1 mps 746 mmHg 97%
    02:00 +25°C° 0.2 mm 1 mps 746 mmHg 97%
    03:00 +24°C° 0.2 mm 1 mps 746 mmHg 98%
    04:00 +24°C° 0.2 mm 1 mps 746 mmHg 98%
    05:00 +25°C° 0 mm 1 mps 746 mmHg 96%
    06:00 +25°C° 0 mm 1 mps 747 mmHg 95%
    07:00 +26°C° 0 mm 1 mps 747 mmHg 94%
    08:00 +27°C° 0.9 mm 1 mps 747 mmHg 91%
    09:00 +29°C° 0.9 mm 1 mps 747 mmHg 89%
    10:00 +30°C° 0.9 mm 1 mps 747 mmHg 86%
    11:00 +31°C° 2.5 mm 1 mps 747 mmHg 84%
    12:00 +31°C° 2.5 mm 1 mps 746 mmHg 81%
    13:00 +30°C° 2.5 mm 0 mps 745 mmHg 79%
    14:00 +30°C° 1.6 mm 0 mps 745 mmHg 81%
    15:00 +29°C° 1.6 mm 0 mps 744 mmHg 84%
    16:00 +31°C° 1.6 mm 1 mps 743 mmHg 86%
    17:00 +29°C° 0.3 mm 1 mps 744 mmHg 89%
    18:00 +28°C° 0.3 mm 1 mps 744 mmHg 91%
    19:00 +27°C° 0.3 mm 1 mps 744 mmHg 94%
    20:00 +24°C° 0.2 mm 0 mps 745 mmHg 94%
    21:00 +24°C° 0.2 mm 0 mps 745 mmHg 93%
    22:00 +24°C° 0.2 mm 0 mps 746 mmHg 93%
    23:00 +24°C° 2.1 mm 0 mps 746 mmHg 94%

    Tomorrow, 21 January, Monday

    Time Temperature Precipitation Wind Pressure Humidity
    00:00 +23°C° 2.1 mm 0 mps 745 mmHg 95%
    01:00 +23°C° 2.1 mm 0 mps 745 mmHg 96%
    02:00 +23°C° 0.8 mm 0 mps 745 mmHg 96%
    03:00 +23°C° 0.8 mm 0 mps 745 mmHg 96%
    04:00 +23°C° 0.8 mm 0 mps 745 mmHg 97%
    05:00 +23°C° 1.5 mm 0 mps 746 mmHg 96%
    06:00 +24°C° 1.5 mm 0 mps 746 mmHg 96%
    07:00 +24°C° 1.5 mm 0 mps 747 mmHg 96%
    08:00 +25°C° 0.5 mm 0 mps 747 mmHg 92%
    09:00 +28°C° 0.5 mm 1 mps 747 mmHg 89%
    10:00 +29°C° 0.5 mm 1 mps 747 mmHg 86%
    11:00 +30°C° 0.9 mm 1 mps 746 mmHg 80%
    12:00 +31°C° 0.9 mm 1 mps 746 mmHg 75%
    13:00 +32°C° 0.9 mm 1 mps 745 mmHg 70%
    14:00 +32°C° 0.3 mm 1 mps 745 mmHg 71%
    15:00 +32°C° 0.3 mm 1 mps 744 mmHg 73%
    16:00 +32°C° 0.3 mm 1 mps 743 mmHg 75%
    17:00 +30°C° 0.3 mm 1 mps 744 mmHg 81%
    18:00 +27°C° 0.3 mm 0 mps 744 mmHg 87%
    19:00 +25°C° 0.3 mm 0 mps 745 mmHg 93%
    20:00 +25°C° 0.1 mm 0 mps 745 mmHg 93%
    21:00 +25°C° 0.1 mm 0 mps 746 mmHg 94%
    22:00 +24°C° 0.1 mm 0 mps 747 mmHg 95%
    23:00 +24°C° 1.8 mm 0 mps 746 mmHg 95%

    Day after tomorrow, 22 January, Tuesday

    Time Temperature Precipitation Wind Pressure Humidity
    00:00 +24°C° 1.8 mm 0 mps 746 mmHg 95%
    01:00 +24°C° 1.8 mm 0 mps 746 mmHg 96%
    02:00 +24°C° 0.5 mm 0 mps 746 mmHg 96%
    03:00 +23°C° 0.5 mm 0 mps 746 mmHg 97%
    04:00 +23°C° 0.5 mm 0 mps 745 mmHg 97%
    05:00 +24°C° 0.3 mm 0 mps 746 mmHg 97%
    06:00 +24°C° 0.3 mm 0 mps 747 mmHg 96%
    07:00 +24°C° 0.3 mm 0 mps 747 mmHg 96%
    08:00 +27°C° 1.1 mm 1 mps 747 mmHg 94%
    09:00 +28°C° 1.1 mm 1 mps 748 mmHg 91%
    10:00 +29°C° 1.1 mm 1 mps 748 mmHg 89%
    11:00 +30°C° 0.6 mm 1 mps 747 mmHg 85%
    12:00 +31°C° 0.6 mm 2 mps 747 mmHg 80%
    13:00 +32°C° 0.6 mm 2 mps 746 mmHg 75%
    14:00 +31°C° 0.8 mm 2 mps 745 mmHg 79%
    15:00 +30°C° 0.8 mm 1 mps 745 mmHg 83%
    16:00 +29°C° 0.8 mm 1 mps 744 mmHg 87%
    17:00 +28°C° 0.6 mm 1 mps 745 mmHg 90%
    18:00 +27°C° 0.6 mm 1 mps 745 mmHg 94%
    19:00 +26°C° 0.6 mm 1 mps 746 mmHg 97%
    20:00 +25°C° 0 mm 1 mps 746 mmHg 97%
    21:00 +25°C° 0 mm 1 mps 747 mmHg 97%
    22:00 +23°C° 0 mm 0 mps 748 mmHg 98%
    23:00 +23°C° 0 mm 0 mps 747 mmHg 98%

    23 January, Wednesday

    Time Temperature Precipitation Wind Pressure Humidity
    00:00 +23°C° 0 mm 0 mps 747 mmHg 98%
    01:00 +23°C° 0 mm 0 mps 746 mmHg 98%
    02:00 +23°C° 0.4 mm 0 mps 746 mmHg 98%
    03:00 +23°C° 0.4 mm 0 mps 746 mmHg 98%
    04:00 +23°C° 0.4 mm 0 mps 746 mmHg 98%
    05:00 +23°C° 0.1 mm 0 mps 747 mmHg 97%
    06:00 +23°C° 0.1 mm 0 mps 747 mmHg 97%
    07:00 +23°C° 0.1 mm 0 mps 748 mmHg 97%
    08:00 +24°C° 0.2 mm 0 mps 748 mmHg 95%
    09:00 +25°C° 0.2 mm 0 mps 749 mmHg 93%
    10:00 +26°C° 0.2 mm 0 mps 749 mmHg 91%
    11:00 +26°C° 0.6 mm 0 mps 748 mmHg 88%
    12:00 +29°C° 0.6 mm 1 mps 747 mmHg 85%
    13:00 +29°C° 0.6 mm 1 mps 747 mmHg 83%
    14:00 +29°C° 0.2 mm 1 mps 746 mmHg 84%
    15:00 +29°C° 0.2 mm 1 mps 745 mmHg 86%
    16:00 +26°C° 0.2 mm 0 mps 744 mmHg 88%
    17:00 +26°C° 0 mm 0 mps 744 mmHg 90%
    18:00 +25°C° 0 mm 0 mps 745 mmHg 93%
    19:00 +24°C° 0 mm 0 mps 745 mmHg 95%
    20:00 +24°C° 0 mm 0 mps 745 mmHg 95%
    21:00 +24°C° 0 mm 0 mps 746 mmHg 95%
    22:00 +24°C° 0 mm 0 mps 746 mmHg 95%
    23:00 +24°C° 0 mm 0 mps 746 mmHg 96%

    24 January, Thursday

    Time Temperature Precipitation Wind Pressure Humidity
    00:00 +23°C° 0 mm 0 mps 746 mmHg 96%
    01:00 +23°C° 0 mm 0 mps 745 mmHg 97%
    02:00 +23°C° 0.3 mm 0 mps 745 mmHg 97%
    03:00 +23°C° 0.3 mm 0 mps 745 mmHg 98%
    04:00 +22°C° 0.3 mm 0 mps 745 mmHg 98%
    05:00 +23°C° 0.6 mm 0 mps 746 mmHg 98%
    06:00 +24°C° 0.6 mm 0 mps 747 mmHg 97%
    07:00 +24°C° 0.6 mm 0 mps 747 mmHg 96%
    08:00 +26°C° 1.6 mm 0 mps 747 mmHg 93%
    09:00 +27°C° 1.6 mm 0 mps 748 mmHg 90%
    10:00 +28°C° 1.6 mm 0 mps 748 mmHg 86%
    11:00 +29°C° 1 mm 0 mps 747 mmHg 80%
    12:00 +30°C° 1 mm 0 mps 746 mmHg 75%
    13:00 +31°C° 1 mm 0 mps 745 mmHg 69%
    14:00 +31°C° 0 mm 0 mps 744 mmHg 67%
    15:00 +31°C° 0 mm 0 mps 744 mmHg 65%
    16:00 +31°C° 0 mm 0 mps 743 mmHg 64%
    17:00 +29°C° 0.1 mm 0 mps 743 mmHg 70%
    18:00 +28°C° 0.1 mm 0 mps 743 mmHg 77%
    19:00 +26°C° 0.1 mm 0 mps 744 mmHg 83%
    20:00 +25°C° 0.7 mm 0 mps 744 mmHg 86%
    21:00 +25°C° 0.7 mm 0 mps 745 mmHg 89%
    22:00 +26°C° 0.7 mm 1 mps 746 mmHg 92%
    23:00 +26°C° 1.6 mm 1 mps 745 mmHg 94%

    25 January, Friday

    Time Temperature Precipitation Wind Pressure Humidity
    00:00 +26°C° 1.6 mm 1 mps 745 mmHg 95%
    01:00 +25°C° 1.6 mm 1 mps 745 mmHg 97%
    02:00 +25°C° 0.2 mm 1 mps 745 mmHg 97%
    03:00 +25°C° 0.2 mm 1 mps 745 mmHg 98%
    04:00 +25°C° 0.2 mm 1 mps 745 mmHg 98%
    05:00 +25°C° 0 mm 1 mps 745 mmHg 98%
    06:00 +26°C° 0 mm 1 mps 746 mmHg 97%
    07:00 +26°C° 0 mm 1 mps 747 mmHg 97%
    08:00 +27°C° 0.6 mm 1 mps 747 mmHg 92%
    09:00 +29°C° 0.6 mm 1 mps 747 mmHg 88%
    10:00 +30°C° 0.6 mm 2 mps 747 mmHg 84%
    11:00 +31°C° 0.8 mm 1 mps 746 mmHg 80%
    12:00 +32°C° 0.8 mm 1 mps 745 mmHg 76%
    13:00 +30°C° 0.8 mm 0 mps 744 mmHg 72%
    14:00 +30°C° 0.1 mm 0 mps 743 mmHg 74%
    15:00 +30°C° 0.1 mm 0 mps 743 mmHg 75%
    16:00 +29°C° 0.1 mm 0 mps 742 mmHg 77%
    17:00 +28°C° 0.6 mm 0 mps 742 mmHg 83%
    18:00 +27°C° 0.6 mm 0 mps 743 mmHg 88%
    19:00 +25°C° 0.6 mm 0 mps 743 mmHg 93%
    20:00 +25°C° 0 mm 0 mps 744 mmHg 94%
    21:00 +27°C° 0 mm 1 mps 745 mmHg 96%
    22:00 +26°C° 0 mm 1 mps 745 mmHg 97%
    23:00 +26°C° 0.7 mm 1 mps 745 mmHg 97%
    Show more